Regional Weather Roundup
Issued by NWS

Home | Current Version | Previous Version | Graphics & Text | Print | Product List | Glossary On
Versions: 1 2 3 4 5 6 7 8 9 10 11 12 13 14 15 16 17 18 19 20 21 22 23 24 25 26 27 28 29 30 31 32 33 34 35 36 37 38 39 40 41 42 43 44 45 46 47 48 49 50
000
ASUS45 KCYS 310910
RWRWY

WYOMING REGIONAL WEATHER ROUNDUP
NATIONAL WEATHER SERVICE CHEYENNE WY
300 AM MDT THU JUL 31 2014

NOTE:  "FAIR" INDICATES FEW OR NO CLOUDS BELOW 12,000 FEET
WITH NO SIGNIFICANT WEATHER AND/OR OBSTRUCTIONS TO VISIBILITY.

WYZ001-311000-
YELLOWSTONE NATIONAL PARK

CITY           SKY/WX    TMP DP  RH WIND       PRES   REMARKS
LK YELLOWSTONE   N/A     43  39  86 CALM      30.48S
W YELLOWSTONE  NOT AVBL

$$
WYZ002>013-054>058-071-098>099-311000-
NORTHERN WYOMING

CITY           SKY/WX    TMP DP  RH WIND       PRES   REMARKS
JACKSON        CLEAR     48  45  87 NE3       30.40S
CODY           NOT AVBL
GREYBULL       CLEAR     63  41  44 SE5       30.19R
WORLAND        CLEAR     59  44  57 S10       30.20S
SHERIDAN       CLEAR     51  42  71 CALM      30.19R
BUFFALO        CLEAR     64  33  31 SW3       30.27S
GILLETTE       PTCLDY    55  45  68 CALM      30.22S
HULETT         FAIR      54  45  71 MISG      30.23
NEWCASTLE      FAIR      54  39  58 NE6       30.23

$$
WYZ014>020-022>026-101>103-311000-
CENTRAL WYOMING

CITY           SKY/WX    TMP DP  RH WIND       PRES   REMARKS
BIG PINEY      CLEAR     44  41  89 E5        30.42F
PINEDALE       SUNNY     37  37 100 W7        30.43S WCI  32
DUBOIS         FAIR      45  34  65 W13       30.42F
LANDER         CLEAR     56  45  66 CALM      30.29F
RIVERTON       CLEAR     57  41  55 NW15      30.30S
CASPER         CLEAR     53  43  68 W5        30.29S
DOUGLAS        CLEAR     55  47  74 NW3       30.27S

$$
WYZ021-027>030-104>119-311000-
SOUTHERN WYOMING

CITY           SKY/WX    TMP DP  RH WIND       PRES   REMARKS
EVANSTON       CLEAR     53  47  79 N5        30.38S
KEMMERER       SUNNY     46  45  93 N10       30.40F
FORT BRIDGER     N/A     51  49  94 SE5       30.41S
ROCK SPRINGS   CLEAR     53  42  66 NW3       30.37F
DIXON          PTSUNNY   53  47  78 NE5       30.35S
RAWLINS        CLEAR     48  45  89 NW6       30.37S
SARATOGA       FAIR      46  46 100 SW3       30.38F
LARAMIE        PTCLDY    49  47  93 CALM      30.38S
CHEYENNE       MOCLDY    53  50  89 W7        30.32S
TORRINGTON     MOCLDY    57  55  93 E5        30.21S
PINE BLUFFS    FAIR      54  54 100 SW5       30.28F

$$


USA.gov is the U.S. government's official web portal to all federal, state and local government web resources and services.